Regional Weather Roundup
Issued by NWS Northern Indiana

Home | Current Version | Previous Version | Graphics & Text | Print | Product List | Glossary On
Versions: 1 2 3 4 5 6 7 8 9 10 11 12 13 14 15 16 17 18 19 20 21 22 23 24 25 26 27 28 29 30 31 32 33 34 35 36 37 38 39 40 41 42 43 44 45 46 47 48 49 50
000
ASUS43 KIWX 211100
RWRIWX

KIWX WEATHER ROUNDUP
NATIONAL WEATHER SERVICE NORTHERN INDIANA
700 AM EDT SUN SEP 21 2014

NOTE: "FAIR" INDICATES FEW OR NO CLOUDS BELOW 12,000 FEET WITH NO
SIGNIFICANT WEATHER AND/OR OBSTRUCTIONS TO VISIBILITY.

* THESE STATIONS ARE NOT UNDER NWS QUALITY CONTROL. THEY ALSO MAY NOT
  REPORT WEATHER SUCH AS PRECIPITATION OR FOG.

INZ001>027-211200-
NORTHERN INDIANA

CITY           SKY/WX    TMP DP  RH WIND       PRES   REMARKS
GARY*          PTCLDY    61  55  82 W14       29.80R
VALPARAISO     CLEAR     59  54  83 W13       29.80R
SOUTH BEND     PTCLDY    62  55  77 W16G24    29.76R
GOSHEN         PTCLDY   N/A N/A N/A W15G22    29.74R
ANGOLA*        MOCLDY    64  55  72 W9        29.71R
FORT WAYNE     MOCLDY    67  63  87 W15       29.75R
PERU/GRISSOM   MOCLDY    66  66 100 NW16      29.79R

$$
INZ028>050-211200-
CENTRAL INDIANA

CITY           SKY/WX    TMP DP  RH WIND       PRES   REMARKS
LAFAYETTE      PTCLDY    61  58  90 W13G23    29.83R
KOKOMO*        MOCLDY    66  63  88 NW18G25   29.79R
MUNCIE*        CLOUDY    69  65  86 W16       29.78R
INDIANAPOLIS   MOCLDY    69  66  90 W15       29.82R

$$
MIZ043>046-050>051-056>058-064>065-071>073-077>080-211200-
SOUTHWEST LOWER MICHIGAN

CITY           SKY/WX    TMP DP  RH WIND       PRES   REMARKS
BATTLE CREEK   MOCLDY    61  57  87 W20       29.69R
BENTON HARBOR  MOCLDY    60  54  80 W22G31    29.74R
COLDWATER*     PTCLDY    64  59  85 W16G25    29.69R
HILLSDALE*     PTCLDY    64  62  93 W12       29.68R
HOLLAND        MOCLDY    61  56  83 W16G25    29.69S
GRAND RAPIDS   CLOUDY    61  59  93 W15G23    29.66R
KALAMAZOO      CLOUDY    61  57  87 W14       29.71R
STURGIS*         N/A     63  57  82 W9G18     29.71S
THREE RIVERS*  MOCLDY    62  57  83 NW14G23   29.72R

$$
OHZ001>008-015>018-024>025-211200-
NORTHWEST OHIO

CITY           SKY/WX    TMP DP  RH WIND       PRES   REMARKS
DEFIANCE       PTCLDY   N/A N/A N/A W8G21     29.71R
FINDLAY        CLOUDY    71  66  84 MISG      29.70S
TOLEDO EXPRESS CLEAR     67  60  78 W22G29    29.66R
TOLEDO METCALF PTCLDY    69  63  81 SW23G30   29.66R
LIMA           MOCLDY    70  67  90 SW17      29.73F

$$
AND FOR LAKE MICHIGAN COASTAL AND OPEN LAKE BUOY OBSERVATIONS

STATION/POSITION TEMP    WIND        PRES    VSBY  WAVE
                 AIR SEA DIR/SP/G                  HT/PER
                 (F)     (DEG/KT/KT) (MB)    (MI)  (FT/S)
CALUMET HARBOR    60     260/  5/  8 1007.6R
MICHIGAN CITY     64     250/ 26/ 30   N/A
SAINT JOSEPH      63     250/ 21     1007.8S
SOUTH LAKE BUOY   62 63  270/ 23/ 27 1005.4R         4/ 4
4 MI NW BRIDGMAN  63 65  280/ 23/ 29   N/A           6/ 5
MICHIGAN CITY     63 65  300/ 21/ 25   N/A           7/ 5

$$
&&


USA.gov is the U.S. government's official web portal to all federal, state and local government web resources and services.